Theta_e
292 292 292 292 292 291 292 292 292 292 292 292 292 292 293 293 293 294 294 294 295 294 294 294 294 294 294 293 293 292 292 292 292 292 291 291 291 291 291 290 290 290 290 289 290 289 289 289 289 289 290 289 289 290 290 290 290 290 290 290 289 290 290 289 288 287 281 286 287 285 286 286 285 286 285 284 284 284 286 285 285 284 283 283 284
291 291 291 291 291 291 291 291 291 291 291 291 290 290 291 291 292 292 292 293 293 293 293 294 293 293 292 292 292 292 292 292 292 291 291 290 290 291 290 290 289 289 289 288 289 289 289 288 288 288 289 288 288 288 288 288 288 288 288 288 288 288 290 289 288 288 283 282 284 285 284 286 283 285 284 283 282 282 282 282 283 283 283 283 283
290 290 290 290 290 290 290 290 290 290 290 290 289 290 290 290 291 291 291 292 292 292 292 292 292 293 292 292 292 292 292 291 292 291 290 290 289 289 290 289 288 288 288 288 288 288 288 287 287 288 288 287 287 287 288 287 287 287 287 287 287 287 288 288 287 286 285 281 283 282 283 284 283 283 284 284 283 283 281 281 282 283 283 283 283
290 289 289 289 289 289 288 289 288 288 288 289 288 289 289 289 290 290 290 291 291 292 292 292 292 291 291 291 291 291 291 291 291 291 290 289 289 289 289 288 288 288 287 287 287 287 286 286 287 287 287 286 286 286 287 287 286 286 286 286 286 286 286 287 287 286 286 281 282 281 282 282 282 283 284 284 283 282 282 282 282 282 282 283 283
288 289 288 288 288 288 287 288 287 288 287 288 288 289 288 288 289 288 289 289 289 290 290 291 291 290 290 290 291 291 291 291 290 290 290 289 289 288 288 287 287 287 287 287 287 286 286 286 286 286 285 285 285 285 285 285 285 285 285 285 285 285 285 285 285 286 285 283 281 282 282 282 282 282 282 281 281 281 281 280 281 281 282 282 283
288 288 288 287 287 287 287 287 287 287 287 288 288 288 288 288 288 288 288 288 288 288 288 289 289 289 289 290 290 290 290 290 290 289 289 289 288 288 288 287 287 287 287 286 286 286 286 285 285 285 285 284 284 284 284 284 284 284 284 284 284 284 284 284 284 284 284 284 281 280 280 280 280 280 281 281 279 278 279 280 280 281 281 281 282
287 287 287 287 286 286 286 286 286 286 286 286 287 287 287 287 288 287 288 287 287 287 287 287 288 288 288 288 288 288 288 288 289 289 289 289 288 287 287 286 286 286 286 286 286 286 286 285 285 285 284 284 284 284 284 283 283 283 284 284 284 283 283 283 283 283 283 283 281 280 279 280 280 278 280 280 280 280 278 278 278 280 281 281 281
287 287 286 286 286 286 286 286 286 286 286 286 286 286 286 286 286 287 287 287 287 287 287 287 287 287 287 287 287 287 287 287 287 288 288 288 288 287 287 286 286 285 286 286 285 285 285 285 285 285 285 285 284 284 284 283 283 283 283 283 283 283 282 282 282 282 282 282 281 279 279 278 278 279 279 279 277 278 280 279 278 279 279 281 281
286 286 286 285 286 286 286 287 286 286 286 285 285 285 285 285 285 285 286 287 287 287 287 287 286 286 287 287 286 286 286 286 287 287 287 287 288 287 287 286 286 285 285 285 285 285 285 285 285 285 285 285 286 286 285 285 284 283 283 283 283 282 282 282 282 282 282 282 281 279 278 277 277 277 276 276 276 276 278 279 279 281 281 281 281
285 285 285 285 286 286 286 286 285 285 285 285 284 284 285 285 285 285 285 285 286 287 286 287 287 286 286 286 286 286 286 287 287 288 289 287 287 287 287 286 286 285 285 285 285 285 285 285 285 285 285 285 285 286 287 287 287 285 284 283 283 282 282 281 281 281 281 280 280 280 278 277 277 277 277 277 278 279 279 278 278 280 281 280 281
284 284 284 285 285 285 285 285 285 284 284 284 284 284 284 285 284 284 285 285 285 285 285 285 286 286 286 286 285 286 286 286 287 289 289 289 288 287 286 286 285 285 285 285 285 285 285 285 285 285 285 285 285 286 287 287 287 287 287 286 285 283 282 281 281 281 280 280 281 280 279 279 278 278 278 278 279 279 279 279 278 279 278 278 276
284 284 284 284 284 284 285 284 284 284 284 283 283 283 283 283 284 284 284 284 284 285 285 284 285 285 286 286 285 286 286 287 288 288 288 288 289 287 286 285 285 285 285 285 285 285 285 285 285 285 284 284 284 284 285 286 287 287 287 287 287 287 286 283 281 281 280 280 280 280 280 279 279 279 278 279 278 279 280 280 279 279 278 278 279
284 284 284 284 284 284 284 284 283 283 283 283 283 283 282 282 282 282 282 283 284 284 284 284 284 285 285 284 284 285 285 287 287 288 288 288 288 288 286 286 285 285 285 285 285 285 285 285 285 285 285 285 284 284 283 284 286 287 287 286 286 287 288 289 287 284 282 281 280 280 280 280 279 279 280 280 281 279 280 280 280 280 280 279 279
284 283 283 283 283 283 284 283 283 283 283 283 283 282 282 281 282 282 282 283 283 283 283 283 284 284 284 284 284 284 285 286 287 287 287 287 287 287 286 286 285 285 285 285 285 285 285 285 284 284 284 284 283 283 283 283 283 284 284 283 283 284 286 287 286 286 285 282 282 281 282 282 280 281 281 282 280 279 279 279 280 279 279 279 280
283 283 283 283 283 283 283 283 283 282 282 282 281 281 281 281 281 281 282 281 282 282 282 282 282 283 283 284 283 283 284 286 287 287 287 287 287 287 286 286 286 285 285 285 285 285 285 285 285 284 284 283 284 283 282 282 282 282 282 282 282 282 282 283 284 284 284 283 283 282 283 283 282 282 282 282 282 282 282 281 280 279 279 279 279
283 283 283 283 283 283 283 282 282 282 281 281 280 280 280 280 280 280 281 281 282 282 282 282 281 281 282 282 282 282 283 285 286 286 287 287 287 285 285 285 285 285 285 285 285 285 285 285 284 284 284 284 285 286 285 282 282 281 281 281 281 282 282 284 285 286 284 283 283 283 283 283 285 282 282 282 282 282 282 282 280 279 277 276 275
283 283 282 282 282 282 282 282 281 281 281 280 279 279 278 279 279 280 279 280 280 281 280 281 281 281 281 281 281 281 282 283 285 285 286 286 286 284 284 284 284 284 285 285 285 285 285 284 284 284 284 283 285 287 287 285 281 280 280 280 281 281 281 282 285 286 287 286 285 285 285 286 286 286 286 286 283 282 280 277 276 277 275 274 275
282 282 282 282 282 282 282 281 280 280 280 279 278 278 279 279 279 279 279 278 279 280 280 280 281 281 281 281 281 280 280 282 284 285 285 285 285 284 284 284 284 284 284 285 285 285 285 284 284 283 283 282 285 287 287 285 281 280 280 279 279 279 280 281 281 283 286 285 284 285 285 286 286 286 286 286 285 283 278 276 277 277 275 275 273
281 281 281 282 282 281 281 280 280 279 279 278 278 278 278 278 278 279 278 279 279 279 280 279 280 280 281 281 282 281 280 281 284 284 284 285 284 283 283 283 282 283 284 284 285 285 285 285 284 284 283 283 284 285 286 285 281 280 280 279 278 278 279 280 280 280 280 280 280 281 282 284 284 283 283 285 284 283 280 279 279 276 274 275 275
280 280 281 281 281 280 280 279 279 278 277 277 278 277 278 278 277 277 277 278 277 278 278 278 278 279 280 280 280 280 280 280 282 284 284 284 284 283 283 282 281 282 283 283 284 284 284 283 284 286 286 286 285 285 285 286 282 281 280 279 278 278 280 279 279 280 279 279 279 279 280 281 282 282 282 282 282 281 280 280 279 277 276 275 275
278 279 279 279 279 278 278 278 277 277 277 277 277 277 277 277 276 276 276 276 276 276 276 276 276 277 278 279 279 280 280 280 281 283 284 284 284 283 282 282 282 282 282 283 283 283 283 283 282 284 286 286 286 285 285 286 285 282 281 279 280 281 282 279 280 281 279 279 278 279 278 280 280 280 280 280 280 280 280 280 280 279 277 276 274
277 277 277 277 277 276 276 276 276 275 276 276 275 275 276 276 275 275 275 275 274 274 274 274 275 275 277 278 279 279 280 281 280 282 284 284 284 284 282 281 283 282 281 281 282 283 283 284 282 283 284 285 285 285 285 285 286 283 281 283 283 284 281 280 279 279 278 278 278 278 278 278 279 279 279 279 279 279 279 279 279 279 278 277 275
274 274 274 274 273 273 273 273 273 274 274 274 273 273 274 274 274 274 273 273 273 272 272 273 273 275 276 278 279 279 280 280 283 281 283 284 284 284 284 283 284 283 282 281 281 282 283 284 283 283 283 284 285 285 285 285 284 284 285 284 284 284 283 279 279 278 278 278 277 277 277 277 277 278 277 277 277 277 277 277 277 276 275 275 276
271 270 270 270 270 270 270 271 271 272 272 272 272 272 272 272 272 273 272 272 272 272 272 273 273 274 274 276 277 279 280 280 282 283 282 284 284 284 284 284 284 282 282 282 282 283 283 283 283 284 283 283 284 284 285 284 283 284 285 285 284 283 281 278 278 278 277 277 276 276 276 277 277 276 276 276 275 274 274 274 274 274 274 274 274
267 266 265 265 265 266 266 267 267 268 269 269 269 270 270 271 270 271 271 271 271 271 271 272 272 273 274 275 277 278 279 280 280 281 283 284 284 284 284 284 284 284 282 283 283 283 284 285 284 284 283 283 283 284 284 284 285 284 284 284 284 281 280 278 277 277 276 276 276 276 276 276 276 276 276 275 274 274 273 272 273 273 273 273 273
263 262 262 263 263 264 264 264 265 265 266 267 267 268 268 269 269 269 270 270 270 270 270 270 271 271 272 274 275 277 278 279 279 279 281 282 282 283 283 283 283 283 283 282 283 284 285 285 285 284 283 283 282 281 281 281 283 284 284 284 283 281 279 277 277 276 275 276 275 275 275 276 275 275 275 274 273 271 271 270 270 269 270 269 268
261 260 260 261 261 261 261 262 262 263 264 265 265 266 267 267 267 268 268 268 268 269 269 270 270 271 271 273 274 276 276 277 278 278 279 279 280 280 280 280 282 282 281 281 282 282 283 283 283 284 283 283 282 282 281 282 281 281 282 282 282 280 279 277 276 276 275 276 275 275 275 274 274 273 272 272 270 270 271 270 269 268 268 268 267
259 259 259 259 260 260 260 262 262 262 262 263 264 264 265 266 266 266 267 267 267 268 268 269 269 270 271 272 273 274 275 276 277 278 278 279 279 279 278 278 278 278 278 279 279 281 281 282 283 283 282 281 280 280 280 280 280 280 280 280 281 280 279 279 278 277 276 276 275 274 271 271 270 271 271 270 270 270 270 269 268 267 267 267 266
259 258 259 259 259 260 260 260 260 260 261 261 262 263 263 263 264 265 267 267 267 267 267 267 268 269 270 271 271 272 273 273 274 277 276 278 277 278 278 277 277 278 279 281 280 279 280 280 280 279 279 277 277 277 278 278 278 279 279 279 280 279 277 276 275 275 274 274 272 270 270 270 269 270 269 269 268 268 269 267 268 267 267 267 266
258 258 258 258 258 259 259 259 259 259 259 259 259 260 264 266 266 264 264 268 271 272 272 269 270 270 270 270 271 270 270 271 275 277 278 280 281 281 281 281 282 280 280 281 281 278 278 278 278 277 276 276 276 276 277 277 277 277 278 279 279 277 276 275 275 275 274 273 271 270 269 269 268 268 268 267 267 267 268 267 266 267 266 266 265
257 257 258 258 258 258 258 258 258 259 259 259 259 259 259 261 266 268 268 268 269 270 271 272 273 273 270 269 271 275 276 277 277 278 278 279 279 280 280 281 282 282 283 280 278 277 277 277 277 277 276 276 276 276 277 277 277 277 277 277 278 276 275 275 275 274 273 272 270 269 269 268 267 267 266 266 265 266 266 266 266 266 265 266 265
257 257 257 257 258 258 258 258 258 258 258 259 259 258 258 258 259 264 267 268 268 269 270 270 271 271 272 272 270 269 273 275 276 277 277 278 278 279 279 280 280 282 283 283 278 277 277 277 276 276 276 276 276 276 277 277 277 276 275 274 274 274 274 274 274 273 272 271 269 269 268 268 267 266 266 265 265 265 265 265 265 265 265 266 266
256 256 257 257 257 257 257 257 258 258 257 258 258 258 258 258 257 258 261 266 267 268 268 269 269 270 271 271 272 272 273 274 275 276 276 277 277 278 279 280 281 282 282 280 278 277 277 277 276 276 276 276 276 276 276 277 276 275 274 273 273 272 273 273 273 271 271 269 269 268 267 267 266 266 266 265 265 264 265 265 265 265 266 265 266
257 256 256 257 256 257 257 257 257 257 258 258 258 258 258 258 258 258 258 258 260 263 266 267 268 269 269 270 270 271 272 273 274 275 276 277 277 278 278 277 280 281 281 279 278 277 278 277 276 276 276 276 276 276 276 276 275 274 273 273 272 272 271 270 270 269 269 269 268 267 267 267 266 265 265 265 265 265 265 265 265 265 265 265 265
257 257 257 257 257 257 257 258 258 258 258 258 258 258 258 259 259 258 258 257 257 258 258 260 264 267 265 266 268 270 270 271 272 273 274 276 277 278 278 275 274 275 276 278 279 278 278 277 276 277 277 276 276 276 276 275 275 273 272 271 271 270 268 268 268 268 268 268 267 267 266 266 265 265 265 264 264 264 265 265 265 265 265 265 265
256 257 257 257 257 257 258 258 258 258 258 258 258 258 259 259 258 258 258 258 258 258 258 259 260 264 267 268 269 270 270 271 271 272 273 274 275 276 272 272 273 274 275 278 279 279 278 278 277 277 277 277 277 277 276 275 274 273 272 270 269 268 267 267 267 268 267 267 267 266 266 265 265 265 265 265 265 265 265 265 265 266 266 266 266
256 256 257 257 257 257 258 258 258 258 259 259 259 258 258 258 259 258 258 258 258 259 259 259 260 261 264 264 265 268 270 270 271 272 272 273 274 273 272 273 273 274 275 277 278 278 278 278 278 277 277 276 277 277 275 274 274 272 271 269 268 267 267 267 267 267 267 266 266 265 265 265 265 265 265 264 265 265 265 265 266 266 266 266 267
257 257 257 257 257 257 257 258 258 259 259 259 259 259 259 259 259 259 259 259 259 259 259 260 261 261 260 261 265 265 265 268 270 270 271 272 270 270 272 273 274 274 275 277 278 278 278 278 278 277 277 277 277 276 274 273 272 270 269 268 268 267 269 268 268 267 266 265 265 264 264 264 264 265 265 264 264 264 265 265 265 265 266 266 266
257 258 259 259 260 258 258 259 259 259 259 259 259 259 259 259 259 259 259 259 259 260 260 260 260 260 261 263 263 265 266 264 264 265 266 267 269 272 273 273 274 275 276 278 278 278 278 278 277 277 277 277 276 275 273 272 271 270 268 267 267 267 267 266 266 265 265 264 264 264 264 264 264 265 265 265 265 265 265 265 265 265 265 265 265
257 257 258 259 259 259 259 259 259 259 259 259 259 259 259 259 259 259 259 259 259 259 259 260 260 261 262 263 263 264 264 264 265 265 266 267 268 269 272 273 273 274 276 277 278 278 278 278 278 277 277 277 275 274 272 271 270 268 268 268 267 266 266 266 265 265 264 264 264 264 264 264 264 264 265 265 265 265 265 265 265 266 266 266 266
257 257 258 259 259 259 259 259 259 259 259 259 259 259 259 259 259 260 259 259 260 260 260 260 261 262 263 264 268 268 265 264 265 266 267 267 268 269 270 272 274 274 275 276 278 278 278 278 276 276 275 274 273 272 270 269 268 268 267 267 266 266 265 265 265 265 265 264 264 263 263 263 264 264 263 264 266 266 265 266 266 266 266 266 265
257 257 257 257 258 258 258 258 259 259 260 260 259 259 260 260 260 260 260 260 260 260 260 260 260 262 264 266 268 269 266 266 266 267 268 269 269 269 271 272 273 274 274 276 278 277 277 275 274 274 273 271 270 269 268 268 268 267 267 266 266 265 264 264 265 265 264 264 263 263 263 263 264 264 264 266 265 265 265 265 265 266 265 265 265
257 257 258 258 259 259 259 259 260 260 260 260 260 260 260 260 260 260 260 260 260 260 260 260 261 262 263 266 266 267 265 266 266 267 268 269 269 270 270 271 271 272 273 276 278 276 274 273 272 272 271 270 269 268 268 268 268 267 266 266 266 265 264 264 264 264 264 263 263 263 263 264 264 264 265 265 265 265 265 265 265 265 265 265 264
257 258 258 259 259 259 260 260 260 260 260 261 261 261 261 261 260 260 260 260 260 260 260 261 261 262 262 263 265 265 264 265 266 267 269 270 270 270 271 270 270 271 271 273 273 273 273 272 271 270 270 270 269 269 269 268 268 267 267 266 265 264 264 264 263 263 263 263 262 263 263 264 264 264 265 265 265 265 265 265 264 264 264 264 264
257 258 258 258 259 259 259 260 260 261 261 261 261 261 261 261 261 260 261 260 261 261 261 261 262 262 262 263 264 264 265 265 267 268 269 270 270 269 268 268 268 269 269 269 270 271 270 270 269 268 268 268 268 267 267 267 268 268 267 266 265 264 264 264 264 264 264 263 263 263 263 264 264 264 264 264 264 264 264 264 264 264 264 263 263
257 258 258 258 258 259 259 259 260 260 261 261 262 261 261 261 261 261 261 261 261 261 261 262 262 263 263 263 264 265 266 267 267 267 266 266 266 266 267 268 268 268 268 268 268 269 269 269 268 268 267 266 266 266 266 266 267 267 267 266 266 265 265 264 264 264 264 264 263 263 263 263 264 264 264 264 264 265 264 265 265 264 264 263 263
257 257 258 258 258 258 259 259 259 260 260 261 262 262 262 262 262 262 262 262 262 263 263 263 264 264 265 265 265 264 264 264 263 263 263 263 263 264 264 264 266 266 266 266 266 267 266 265 265 265 264 264 264 265 265 265 265 265 265 265 264 264 263 264 264 264 264 264 264 264 264 263 264 264 264 265 265 265 264 264 264 264 263 263 263
256 257 257 258 258 258 258 258 258 259 259 260 260 261 262 262 263 263 263 263 263 263 263 263 263 262 262 262 261 261 262 262 262 261 262 262 262 262 262 262 263 262 262 263 263 263 263 263 263 263 263 263 263 263 263 263 263 263 263 263 263 263 263 263 264 263 264 264 264 264 264 264 264 264 264 264 264 265 264 264 264 264 263 263 263
256 256 257 257 257 257 257 257 258 258 258 259 259 259 260 260 261 261 261 261 261 261 261 260 260 260 260 259 259 260 260 260 259 259 260 260 260 260 260 260 260 261 260 260 260 261 262 262 262 262 262 261 261 261 261 260 259 260 260 261 261 262 262 262 262 262 262 263 263 263 264 264 263 264 264 264 264 265 265 264 264 263 263 263 262
255 256 256 256 256 256 257 257 257 257 258 258 258 258 259 259 259 259 259 259 259 259 259 259 259 258 258 257 258 258 258 257 257 258 258 259 259 259 259 259 258 258 258 258 258 259 260 260 260 260 260 260 260 260 259 258 259 259 260 261 262 262 262 262 262 262 262 262 262 262 262 262 262 262 263 263 264 265 264 264 263 263 262 261 260
255 255 255 256 256 256 256 256 256 256 256 257 257 257 257 257 258 258 258 257 257 257 257 257 257 257 257 257 257 257 257 257 257 258 258 258 258 258 258 258 258 258 258 258 259 259 259 259 259 259 259 258 258 258 258 258 259 260 261 261 261 261 261 261 261 261 262 262 262 262 262 262 262 262 263 264 265 264 263 263 262 262 261 261 260
Wind_Speed
12 11 10 10 11 11 10 10 11 10 11 11 10 10 10 9 9 9 9 8 7 7 6 6 7 7 8 8 8 8 9 9 8 9 10 10 10 11 11 12 14 14 13 14 13 13 15 16 16 16 13 13 13 11 11 12 11 11 10 10 11 10 10 11 12 7 1 1 5 6 9 11 8 9 10 8 8 7 7 5 6 5 5 5 6
12 12 10 9 11 10 9 8 8 9 10 9 10 9 9 9 9 9 9 8 8 8 8 7 6 7 7 8 8 9 9 9 8 8 10 11 12 9 10 12 13 14 14 15 15 12 13 16 17 15 13 14 14 13 13 12 12 13 12 12 12 11 11 11 12 11 7 2 3 4 7 9 9 9 11 11 9 9 8 6 5 6 6 5 5
10 10 10 10 11 10 9 8 8 8 9 8 10 10 10 10 9 9 9 9 8 8 8 8 8 7 8 8 8 8 8 9 9 9 10 11 12 11 11 12 13 13 15 16 14 12 14 16 17 14 10 14 16 15 13 13 13 14 15 12 13 13 12 13 12 12 11 8 7 9 8 9 10 11 11 8 8 9 10 8 7 6 5 6 6
8 9 9 9 9 9 9 9 10 10 10 7 8 8 9 9 9 10 9 9 9 9 9 9 9 9 9 9 8 8 9 9 9 10 11 11 12 12 11 12 13 13 14 14 14 13 14 16 17 14 12 15 16 15 14 13 13 13 14 13 13 14 11 11 14 12 10 9 8 10 9 10 7 6 7 7 9 9 8 6 6 6 6 6 7
7 7 7 9 9 9 10 9 9 10 10 9 10 8 7 7 8 9 10 10 10 9 8 8 8 9 9 9 9 9 8 9 9 10 10 10 11 12 12 12 13 14 14 14 13 13 15 17 16 12 13 16 17 15 14 15 14 13 14 13 12 12 9 11 13 12 10 10 8 6 7 6 4 7 10 10 8 6 5 7 7 6 6 6 6
6 6 5 6 7 8 9 9 9 9 9 9 10 9 8 7 7 6 7 9 9 9 9 8 7 8 9 10 10 10 9 8 8 9 10 10 11 12 11 12 13 13 14 14 13 13 15 15 14 12 14 17 17 15 14 15 13 12 14 13 12 11 12 11 11 12 13 10 11 9 8 10 8 6 9 9 10 7 6 6 5 6 6 7 7
7 6 6 6 5 5 6 7 8 8 8 9 8 8 9 9 9 8 7 7 8 8 9 9 8 8 9 8 9 9 9 8 8 9 9 9 10 11 12 13 13 13 13 14 14 14 15 15 14 13 15 16 16 14 13 12 12 15 15 14 12 11 11 11 11 12 12 11 8 11 11 9 9 8 8 8 8 8 9 7 7 7 7 7 6
6 6 6 6 5 6 5 5 5 6 7 8 8 9 9 9 9 9 8 8 8 8 8 9 9 8 9 8 8 8 8 9 9 9 9 9 9 10 11 11 12 13 14 14 13 14 15 15 15 14 15 15 14 14 13 13 12 14 14 12 11 12 12 11 11 12 12 11 10 10 10 10 8 4 7 7 5 5 8 9 9 9 9 9 9
7 7 7 7 7 6 6 5 5 6 6 7 8 9 9 9 10 10 9 9 7 8 7 7 8 8 8 8 8 7 7 8 7 8 8 9 8 10 11 11 12 12 12 13 13 14 14 14 15 14 15 17 19 17 16 15 12 13 12 11 13 13 12 11 12 12 12 12 10 7 9 8 8 9 9 10 13 13 11 9 8 8 8 8 8
8 8 8 8 8 8 8 7 7 7 7 8 8 8 8 8 9 10 10 10 10 9 10 9 8 7 8 8 7 6 6 6 8 14 13 10 10 8 8 10 10 11 11 12 12 12 13 13 13 18 19 20 21 21 21 21 21 16 12 11 13 13 13 13 12 13 13 13 14 12 11 12 12 13 10 9 9 9 8 10 9 7 6 6 5
7 8 8 8 8 8 8 8 8 8 9 8 9 9 9 9 9 9 9 10 10 10 9 10 9 9 9 8 8 6 5 6 11 13 15 18 13 11 11 10 9 11 11 12 13 12 11 12 12 14 17 19 19 22 21 22 23 23 21 19 16 15 14 15 15 14 14 15 14 12 15 15 14 14 12 11 11 13 12 12 11 9 9 9 8
8 8 8 8 8 8 7 7 8 8 8 8 8 9 9 9 9 9 9 10 9 10 9 9 10 9 8 8 8 8 7 8 12 14 16 18 15 11 9 9 10 10 11 12 12 11 12 11 10 9 10 14 14 15 20 23 23 23 23 23 23 23 22 17 16 14 15 15 14 16 15 16 15 13 12 11 11 10 9 10 11 11 10 9 9
8 8 8 8 8 8 7 5 5 6 6 6 7 8 9 9 10 10 10 10 10 11 10 10 10 9 9 9 10 9 8 10 12 13 14 16 18 15 9 9 9 10 11 11 12 12 11 11 10 9 8 14 13 13 12 14 19 23 22 23 25 26 22 16 22 19 15 15 16 17 17 15 14 14 14 13 12 13 12 10 10 10 9 8 7
8 8 8 8 8 7 7 5 6 6 6 6 6 8 9 10 10 9 9 9 9 9 9 11 11 10 10 10 10 9 10 10 14 15 15 16 17 15 9 10 10 11 12 12 12 12 12 12 11 10 9 9 10 11 10 11 11 13 14 15 15 19 23 26 27 28 22 17 16 17 15 13 15 14 13 13 14 14 13 12 11 10 10 9 6
8 8 8 8 8 6 6 6 6 7 7 7 7 8 9 9 9 9 9 9 10 9 10 10 9 9 10 9 9 10 9 14 15 15 16 17 17 14 9 9 9 10 11 11 12 12 13 12 13 13 10 10 10 11 10 10 9 11 12 14 15 15 16 18 19 17 17 14 15 15 12 13 14 11 10 11 13 10 11 12 12 9 6 5 4
9 8 8 8 8 8 7 7 8 7 7 8 9 10 9 9 10 9 8 10 10 10 9 9 10 12 10 9 9 10 11 15 17 16 16 16 18 10 8 9 10 11 11 11 11 11 12 12 13 13 12 10 11 16 13 10 9 12 14 13 13 13 14 15 15 15 16 15 14 12 9 10 11 11 12 11 10 7 8 7 7 7 8 6 6
10 9 9 9 9 8 8 8 8 8 8 10 11 11 11 11 10 6 8 10 10 11 11 10 10 11 11 11 10 10 10 13 15 16 15 18 14 8 8 9 9 10 11 11 10 11 11 12 12 12 12 11 11 12 14 13 11 13 14 13 12 12 13 12 14 17 14 9 10 9 9 12 14 15 17 18 12 10 9 9 9 9 9 9 5
12 12 12 10 11 8 8 8 9 10 10 10 11 11 11 9 9 8 9 11 11 11 10 11 11 10 11 11 9 10 11 13 16 17 18 17 14 9 8 9 10 10 9 10 10 11 12 16 14 13 12 11 12 14 17 14 12 13 13 13 13 14 13 10 8 9 11 11 11 13 14 15 16 18 19 19 20 15 13 14 11 10 10 9 8
13 13 13 12 12 9 9 9 10 10 11 12 11 12 12 11 10 9 9 10 11 10 10 10 12 12 11 12 13 13 13 13 16 17 19 18 13 8 8 8 10 10 9 9 9 9 10 12 18 17 15 14 15 18 20 16 13 13 13 12 14 16 14 9 10 10 8 9 9 9 9 13 12 11 13 21 20 14 10 9 10 11 11 8 8
12 13 14 14 10 9 9 10 12 12 13 13 12 12 11 11 12 11 10 9 10 11 11 11 12 13 12 12 12 12 13 12 12 17 17 17 17 10 7 8 10 10 9 9 9 8 8 9 13 21 23 22 20 22 22 23 15 12 11 13 14 16 8 7 9 11 11 12 11 12 12 11 10 10 10 13 13 12 9 9 9 9 9 9 9
13 13 12 11 10 11 11 12 14 14 13 13 13 12 11 11 11 11 12 10 10 11 13 13 13 14 14 14 13 13 12 12 13 17 18 19 20 16 9 10 10 10 9 10 9 9 8 7 8 13 20 22 22 22 24 26 23 15 14 15 15 11 12 11 13 15 12 12 11 11 11 10 11 10 11 11 11 10 9 9 9 9 9 9 9
13 11 12 12 12 12 14 14 14 14 14 13 13 14 13 12 12 12 11 11 13 14 14 14 14 15 14 14 14 15 15 19 14 14 18 20 19 21 12 11 11 9 10 10 10 10 10 8 7 9 17 20 21 21 23 24 26 16 15 18 16 17 15 12 10 11 11 10 10 11 11 12 12 11 11 11 10 10 9 9 9 9 7 6 8
13 12 14 14 14 15 16 16 16 14 14 14 15 16 15 14 14 13 14 15 15 17 17 15 14 14 14 13 14 14 13 14 16 14 16 20 20 21 22 17 18 13 11 11 11 10 9 9 9 13 17 19 20 22 21 24 22 15 19 19 19 21 16 10 11 11 11 11 11 12 12 12 12 12 11 10 8 9 9 10 9 8 7 6 5
13 14 14 15 16 17 17 18 17 15 16 15 15 16 17 16 14 13 14 13 14 15 14 13 13 14 15 16 15 15 14 12 14 19 14 19 20 22 22 23 22 13 11 11 11 10 10 9 11 15 18 20 20 21 22 22 15 20 23 22 21 19 12 11 12 12 12 11 13 13 13 12 10 10 10 9 9 9 8 8 8 8 7 6 7
14 15 18 18 18 17 17 17 18 17 17 16 17 18 18 16 15 14 14 13 14 15 15 12 12 13 15 16 16 15 14 13 12 14 17 16 20 21 22 23 22 23 15 13 13 12 14 18 17 16 18 19 20 20 19 21 26 24 23 23 20 11 11 11 12 12 13 14 13 11 10 10 10 9 9 10 10 9 8 6 6 6 6 6 5
15 17 17 16 17 17 18 18 18 17 18 16 17 17 17 16 16 15 15 16 15 14 17 16 15 16 17 17 17 16 15 13 12 12 12 14 15 19 22 21 21 22 21 15 18 21 21 22 24 21 19 17 13 10 9 9 18 23 24 21 12 11 10 10 11 13 14 13 11 12 10 9 9 9 10 9 10 9 9 9 8 7 7 7 5
16 15 16 16 17 16 17 14 14 15 15 14 14 14 14 14 15 16 16 16 16 16 15 17 16 15 16 17 16 15 14 13 13 12 12 9 8 9 10 11 18 19 15 13 15 14 17 17 13 15 14 16 16 14 12 12 12 13 11 11 9 9 9 10 12 12 12 11 10 9 7 7 8 10 10 10 8 6 7 8 8 7 6 5 6
15 15 17 15 14 14 14 18 18 14 14 13 14 14 13 13 15 16 15 14 14 14 14 14 14 14 14 13 14 15 15 13 11 11 9 7 5 6 6 7 7 7 9 10 10 9 9 11 14 11 10 10 11 8 8 8 8 9 9 9 8 9 10 12 11 10 10 9 7 6 7 8 9 9 8 8 8 7 7 8 7 7 6 7 6
16 17 16 14 14 13 13 13 13 14 14 14 14 14 15 15 16 17 16 13 14 16 16 18 18 16 15 15 15 13 11 11 11 12 16 20 18 13 8 7 6 7 11 14 8 7 7 8 8 8 8 9 8 8 8 8 8 9 10 9 7 8 8 9 11 10 9 9 9 9 9 8 8 7 8 8 7 7 5 5 5 7 7 6 5
17 16 14 14 13 13 13 12 13 14 15 15 16 16 20 24 21 18 19 24 32 34 29 20 17 14 14 15 14 16 16 16 22 27 25 24 23 22 22 22 21 15 13 17 11 8 9 8 8 7 6 6 7 9 9 9 9 8 9 9 8 8 9 10 11 10 10 11 10 10 11 10 10 9 9 8 7 7 6 7 6 7 7 7 6
16 14 14 13 14 15 14 14 13 13 14 15 15 16 16 15 22 29 29 30 30 32 34 37 39 37 28 22 21 32 34 35 34 32 31 30 30 31 29 27 27 26 24 14 10 10 11 9 8 8 7 7 8 9 9 9 9 9 9 9 9 10 11 10 10 10 10 10 10 10 10 11 10 9 10 9 9 7 7 5 5 6 5 7 7
16 16 15 15 16 15 14 15 15 14 14 14 15 15 16 17 16 18 26 28 29 30 30 32 32 32 34 32 27 21 28 34 36 34 34 33 32 31 32 32 31 30 26 23 12 11 12 11 9 8 9 9 11 10 9 9 9 9 9 8 8 8 11 11 10 10 10 10 10 10 10 10 10 10 9 9 9 8 8 8 7 7 7 6 5
18 18 17 17 16 16 15 15 15 15 15 15 15 15 15 15 18 16 14 22 27 28 29 30 31 32 33 33 35 32 31 32 35 35 34 33 32 31 30 31 29 28 27 18 12 13 12 11 9 10 10 10 10 10 10 9 9 9 9 10 9 8 8 8 11 11 10 10 10 9 9 9 9 9 9 9 8 8 8 7 7 6 7 6 6
16 17 16 16 17 15 15 15 15 15 14 15 14 15 15 16 16 17 16 14 14 18 22 25 27 29 30 31 32 32 32 32 33 34 34 34 33 32 30 24 28 28 24 14 12 12 12 9 9 11 11 11 10 10 10 9 9 9 9 8 8 8 8 9 10 10 9 10 10 9 9 9 10 10 9 8 7 7 8 7 7 8 7 7 7
16 20 27 22 15 15 14 14 14 14 15 14 14 15 15 15 15 16 15 16 15 15 14 14 19 24 21 22 26 29 30 30 32 32 32 30 29 29 29 20 19 17 18 16 14 13 13 11 9 11 11 11 11 10 9 9 8 9 9 8 8 8 8 9 10 10 10 9 9 9 9 10 10 9 11 10 8 8 8 8 7 7 7 7 6
15 15 15 16 15 14 14 14 14 14 14 14 15 15 15 15 15 15 16 16 15 15 14 13 12 16 28 28 29 28 29 29 28 29 29 30 30 30 18 15 16 16 16 15 14 14 13 11 10 11 10 11 10 9 8 9 9 9 9 10 10 9 9 10 10 10 10 10 10 10 10 8 9 9 9 8 10 9 8 8 8 8 7 7 7
15 14 14 13 13 13 14 14 14 15 16 16 15 15 14 15 15 15 15 15 15 14 13 13 12 13 17 15 19 24 28 26 26 26 27 28 29 20 16 16 14 14 15 15 14 13 13 11 10 10 10 10 10 9 8 8 8 8 8 9 9 10 10 10 10 10 11 10 9 9 10 10 9 9 9 8 7 6 6 7 7 8 8 8 8
14 14 13 13 13 14 14 14 14 18 16 14 14 14 14 14 15 15 15 15 16 16 14 12 13 13 12 13 16 13 16 21 26 22 19 18 15 14 15 15 14 14 15 14 13 12 12 10 9 10 10 9 9 8 8 8 8 8 9 8 8 7 12 11 11 10 9 9 10 10 8 8 5 7 8 7 7 7 6 6 5 6 6 7 5
13 18 23 24 20 16 14 14 14 14 14 14 13 14 15 15 14 14 14 14 14 14 14 12 12 13 13 12 12 13 15 12 11 11 11 11 12 12 11 11 13 13 15 14 13 12 11 9 7 8 8 8 9 8 9 9 9 9 9 9 9 8 10 8 9 9 9 9 10 9 10 8 7 8 8 8 7 7 7 7 6 6 6 6 5
14 13 14 22 15 16 14 14 14 14 14 14 14 13 13 13 14 14 13 13 13 13 12 13 14 13 13 12 12 11 12 12 12 11 10 11 11 13 12 11 11 12 12 13 14 12 12 9 7 7 8 8 8 9 9 9 9 10 10 10 10 10 10 9 10 10 10 9 10 11 10 8 9 8 7 6 7 7 7 7 7 7 7 6 6
13 14 14 16 17 15 14 14 13 13 13 13 13 13 13 14 14 13 13 13 13 13 13 12 12 13 13 17 27 25 16 15 15 13 11 11 10 10 11 10 9 10 11 11 12 12 11 8 6 6 6 6 7 8 9 10 10 10 10 9 9 9 9 9 9 9 10 10 11 10 7 9 10 9 8 6 7 7 5 6 6 6 6 6 5
13 13 13 13 14 13 12 13 13 14 13 13 13 13 13 13 13 12 13 13 13 13 13 12 12 12 17 27 25 27 17 12 12 12 12 11 10 10 10 9 6 6 9 11 11 8 7 8 8 8 8 7 8 8 9 10 10 10 10 10 10 10 10 9 9 9 10 10 10 7 6 8 10 9 9 8 6 6 5 5 5 5 5 5 5
14 13 13 13 13 12 12 13 13 13 13 13 12 12 13 13 12 12 12 12 12 12 12 13 12 12 13 20 20 23 13 12 12 13 12 10 9 8 8 8 6 8 10 13 8 7 10 10 9 9 9 10 10 11 12 11 11 10 10 11 11 11 11 10 9 9 9 10 11 8 11 11 10 8 7 7 6 6 5 5 5 4 4 4 4
13 13 12 12 12 12 12 12 12 13 12 14 15 13 12 11 11 11 11 11 11 11 11 11 11 11 11 13 14 12 10 10 10 11 12 10 7 7 6 2 4 4 8 5 4 9 10 10 10 8 8 8 8 9 9 10 11 12 12 12 11 11 11 11 11 12 12 12 7 9 10 9 9 8 7 7 7 7 6 5 4 4 4 3 3
11 11 12 12 12 12 12 12 12 12 14 12 11 10 10 9 10 10 10 10 11 11 10 10 10 11 11 11 10 11 11 10 11 11 11 9 6 2 2 1 2 3 3 6 4 5 9 10 10 10 9 7 7 7 6 6 7 9 10 12 13 12 12 12 13 13 13 14 12 11 9 9 8 8 7 7 6 6 6 6 5 5 4 4 3
11 11 12 11 12 12 12 11 12 12 12 12 10 9 9 9 9 9 10 10 10 10 9 10 9 10 10 10 10 10 9 9 8 7 6 6 5 4 4 3 3 3 4 4 5 6 6 8 9 9 9 8 7 7 6 7 7 6 7 6 8 9 9 10 13 14 13 13 12 10 9 8 7 7 7 6 6 5 5 5 5 4 4 4 4
11 11 11 11 11 12 12 12 11 11 11 11 11 10 10 9 9 9 10 11 10 11 10 9 9 9 8 8 8 8 8 7 7 7 7 7 7 6 6 6 5 5 6 6 6 7 8 8 8 8 8 8 8 8 8 7 7 7 7 7 8 10 11 11 11 11 10 10 10 9 9 8 8 7 8 7 6 6 5 4 4 5 4 4 4
10 11 11 11 11 11 11 11 12 13 11 11 11 11 11 10 10 10 9 10 10 9 9 8 8 8 8 7 7 7 7 6 6 6 6 6 6 6 7 7 7 7 7 8 8 8 8 8 8 9 9 9 9 9 8 8 8 8 8 9 9 11 14 14 10 10 9 9 8 9 9 8 7 7 6 6 5 5 5 4 4 4 4 4 4
10 10 10 11 11 11 11 11 11 11 11 11 11 11 10 10 10 9 9 9 10 9 9 8 8 8 7 7 7 7 7 7 6 6 7 7 7 7 7 7 8 8 8 8 8 9 9 8 9 9 9 9 9 10 10 11 11 11 11 10 13 17 16 15 11 9 9 9 8 7 7 7 7 6 6 5 5 4 4 4 4 4 4 4 4
9 10 10 10 11 11 11 10 10 10 10 10 10 10 10 10 10 10 10 10 10 9 9 9 8 8 8 7 8 8 7 7 7 7 6 6 7 7 7 7 8 8 8 8 8 8 9 9 9 10 10 9 9 10 9 11 11 10 9 12 19 18 17 17 15 13 8 7 7 6 7 6 6 5 5 4 4 4 4 4 4 4 4 4 4
9 10 10 10 10 10 10 10 10 10 10 10 10 10 10 10 9 9 10 10 10 10 10 9 8 8 7 7 8 7 7 7 7 7 7 7 7 8 7 8 8 8 9 9 9 8 9 8 9 10 11 11 10 8 8 8 8 10 13 18 18 18 17 14 10 11 12 8 6 6 6 6 5 5 4 4 4 5 5 5 5 5 4 5 4
Wind_Direction
10 8 6 7 10 9 5 4 360 358 358 3 357 349 341 333 330 324 316 305 300 292 280 264 258 249 242 239 233 230 228 229 226 226 228 233 233 233 233 225 229 232 231 228 223 222 225 225 227 225 219 221 226 221 221 218 215 220 217 215 220 214 210 218 226 219 36 336 147 154 161 156 166 172 164 155 154 175 171 167 173 165 185 214 218
1 358 358 358 2 360 359 0 0 354 356 359 358 351 347 340 334 327 320 314 313 304 294 283 270 257 251 245 240 234 232 230 226 224 229 232 234 231 233 231 231 232 229 233 228 222 224 227 230 225 216 221 225 223 220 216 214 218 217 214 219 215 208 211 222 223 190 162 124 122 150 169 168 172 172 166 165 169 179 177 181 177 194 198 220
357 354 353 354 356 356 354 353 355 354 356 356 355 351 349 343 340 334 327 322 315 310 307 302 292 283 270 259 248 241 235 233 227 227 229 231 233 232 230 230 229 231 231 231 230 224 226 229 232 224 216 223 226 225 221 218 217 219 220 214 218 217 208 209 213 220 205 188 167 159 167 176 184 176 176 173 161 165 177 185 184 185 190 205 211
354 352 352 351 353 354 353 351 355 354 354 352 353 351 346 340 339 338 332 327 324 316 313 307 299 291 285 274 260 249 242 236 234 228 229 231 235 235 231 229 232 234 235 235 231 228 228 232 233 224 217 228 230 226 223 221 218 219 222 218 219 218 209 208 213 215 211 169 189 176 176 167 183 163 164 158 162 169 178 173 177 188 191 202 209
341 342 345 348 349 353 351 352 351 350 351 345 345 344 344 341 338 336 336 331 324 318 308 303 296 292 288 285 276 264 252 243 239 237 234 231 234 236 236 234 235 238 238 238 233 229 231 233 236 224 221 230 233 229 226 221 221 219 221 219 219 217 210 208 213 213 211 193 169 178 159 167 158 158 169 161 155 157 164 181 183 188 201 207 208
328 329 328 332 340 347 346 347 348 345 343 341 341 341 337 334 334 332 331 325 322 322 318 316 310 298 291 288 287 280 271 263 253 248 243 239 239 238 238 239 240 239 239 241 239 234 237 239 237 226 224 228 233 229 227 224 223 222 223 220 217 213 212 212 208 211 213 208 167 161 175 167 163 174 176 169 161 158 173 185 191 199 199 209 215
327 325 327 325 325 332 334 338 340 339 341 339 336 336 337 333 330 329 326 321 322 322 321 317 311 309 302 297 291 288 282 274 268 261 255 249 245 240 237 239 240 242 243 242 241 241 240 240 237 229 230 231 234 230 227 224 221 224 224 222 218 211 212 209 204 207 211 205 183 178 168 179 170 160 174 177 178 175 173 166 198 199 201 203 214
320 322 323 323 323 326 323 321 324 331 330 333 334 335 336 335 332 327 324 324 323 320 319 318 313 309 304 299 295 294 289 284 277 270 263 258 253 247 244 244 244 241 243 242 240 241 241 239 236 231 230 233 233 232 224 226 220 225 222 216 212 211 213 208 204 205 205 207 191 181 177 167 173 137 133 152 159 200 203 190 188 176 190 200 205
325 325 325 325 328 329 326 324 322 331 327 329 331 332 331 329 330 329 325 320 318 311 305 302 303 303 299 296 294 288 284 280 281 280 279 270 258 255 254 252 248 248 245 244 239 239 241 240 239 237 232 233 231 231 225 223 222 226 221 204 208 209 213 208 206 204 207 204 200 176 173 179 180 154 163 179 192 192 182 192 206 193 182 182 195
320 324 324 324 324 326 326 327 330 332 331 330 328 326 323 322 322 323 322 322 322 318 318 310 303 300 303 300 291 281 276 271 268 270 270 273 276 272 263 258 253 251 252 250 247 239 237 238 237 233 231 231 230 230 229 227 226 224 220 206 208 210 211 208 207 207 204 204 206 188 188 197 189 186 179 189 178 173 167 185 194 189 167 178 173
313 314 316 316 318 317 319 321 326 328 328 327 326 326 324 322 320 318 316 319 318 319 318 316 317 313 307 302 299 290 276 270 271 272 273 272 270 270 274 273 264 259 257 254 254 248 242 238 239 231 227 229 230 229 228 228 228 228 224 216 211 206 207 208 212 204 205 211 207 198 204 202 195 189 187 168 181 187 180 183 187 183 186 177 192
304 303 306 311 310 310 306 311 313 313 319 320 324 324 323 321 319 319 320 318 315 313 310 311 313 312 308 306 301 298 292 283 282 286 285 281 273 264 261 264 267 268 265 259 257 255 251 247 237 230 223 223 224 225 227 228 227 226 224 221 219 215 210 206 207 205 207 211 208 210 205 207 195 181 190 178 181 185 186 178 183 185 185 196 194
282 287 290 296 301 300 302 302 302 302 301 305 309 312 315 316 316 316 316 314 313 312 309 311 307 307 307 307 308 301 297 293 294 293 293 291 286 275 264 257 259 260 264 266 266 263 260 254 249 235 231 216 212 218 221 223 224 225 224 224 222 220 217 211 209 208 203 209 212 214 209 203 194 200 189 183 177 186 182 181 184 188 192 191 184
268 272 275 274 279 285 289 287 287 289 291 296 300 302 305 304 305 307 305 307 305 303 304 306 305 306 305 302 300 301 298 296 297 296 293 291 289 285 269 264 258 256 256 257 262 268 265 263 258 251 239 219 214 215 211 214 213 215 220 222 224 224 223 221 220 217 211 212 215 219 213 195 206 199 186 179 178 186 181 187 180 180 188 187 159
264 268 275 278 280 282 278 276 280 285 287 289 290 291 292 294 296 297 296 296 298 298 299 301 298 295 296 293 292 293 289 292 295 293 293 292 290 286 277 271 264 258 255 253 254 258 263 265 263 262 253 235 225 213 208 203 202 209 213 218 221 220 220 222 220 219 220 223 224 226 214 199 208 195 180 186 192 191 188 183 174 169 140 103 86
272 274 278 281 280 277 277 277 274 278 283 286 286 288 288 286 291 293 290 293 292 291 287 289 293 293 291 288 286 285 289 290 289 289 290 292 291 286 274 268 267 264 259 255 253 251 253 254 259 261 259 249 233 223 209 190 199 208 214 218 221 223 225 223 217 215 217 219 220 220 213 196 183 181 176 176 172 148 121 113 111 131 138 150 171
283 281 278 278 279 279 278 275 272 272 276 279 280 284 286 285 282 276 278 281 283 284 286 285 288 287 288 288 283 282 286 288 285 285 285 287 289 280 275 269 263 263 261 259 254 251 247 246 248 255 256 252 238 212 203 178 206 210 216 218 219 222 229 220 214 214 219 203 193 189 190 177 173 170 171 169 163 150 137 139 165 155 151 170 171
291 292 288 282 277 274 274 277 277 276 275 273 277 280 279 279 277 276 278 282 281 279 284 286 283 280 279 281 277 281 285 281 279 279 281 279 277 275 272 271 268 263 263 254 252 250 245 241 242 246 249 248 249 215 208 192 216 213 217 217 220 224 227 214 203 206 187 140 166 172 183 174 175 171 172 167 163 160 165 178 170 154 175 174 168
293 293 291 288 285 283 284 281 277 277 276 274 273 273 272 272 271 276 273 274 274 277 274 278 282 280 277 274 278 277 277 278 274 274 273 271 270 266 266 265 269 266 264 262 255 249 246 239 235 237 239 242 235 233 222 208 215 216 214 216 222 224 214 188 180 182 179 189 189 177 179 175 172 170 175 172 168 168 178 168 159 168 173 168 164
298 298 295 290 286 287 290 289 284 282 281 281 278 273 275 273 269 270 268 268 275 277 278 275 275 277 277 274 273 271 271 271 265 263 264 263 263 260 258 261 260 263 262 262 264 260 247 239 236 238 237 234 223 218 222 219 214 217 212 219 222 226 185 168 185 191 194 193 193 189 188 179 174 170 173 173 173 172 167 165 168 166 170 167 172
301 298 295 295 297 297 295 291 290 288 285 285 285 281 276 272 273 272 272 269 265 269 271 275 276 276 274 271 268 267 261 265 266 254 252 254 255 253 250 249 253 256 261 261 261 261 254 233 232 227 231 233 228 221 219 220 215 211 214 221 222 207 173 192 197 179 190 191 191 188 187 187 182 180 179 177 174 174 169 167 170 167 167 167 165
305 303 299 297 298 298 297 295 293 290 289 288 286 282 279 275 272 272 270 267 267 267 270 272 272 272 272 268 266 266 265 258 259 251 244 244 244 242 240 244 242 251 256 257 255 256 251 248 236 222 224 229 229 224 224 222 221 219 215 219 217 199 188 192 183 187 191 185 185 189 188 189 188 183 183 181 177 171 160 161 171 170 168 168 166
311 307 303 300 300 298 296 294 293 292 288 287 285 282 282 279 274 272 270 268 267 268 266 265 264 266 266 265 264 262 259 261 248 244 239 237 238 237 237 239 244 242 247 252 252 253 255 248 236 228 222 223 227 229 228 229 228 226 220 216 213 206 193 187 189 188 188 185 183 189 190 188 183 185 177 173 161 153 145 159 153 149 137 135 127
312 307 304 302 303 299 298 297 293 291 290 291 288 284 281 279 277 273 270 269 268 262 260 260 264 267 268 266 264 262 262 259 254 248 238 232 232 236 237 239 240 237 238 248 251 251 254 240 242 230 220 219 226 233 239 237 233 231 230 225 216 206 196 191 189 186 184 185 190 192 192 189 180 175 174 163 153 141 137 137 138 136 134 131 134
311 303 299 298 296 294 293 291 290 290 290 291 289 285 281 278 276 271 269 262 264 266 263 254 255 261 265 268 268 266 266 266 263 259 244 224 230 233 236 239 241 241 243 245 246 249 251 253 250 229 216 216 221 229 239 239 237 236 234 229 223 205 201 189 192 186 192 196 195 189 186 184 176 164 150 148 142 129 130 125 119 120 122 118 125
298 298 299 297 297 300 299 296 292 290 289 287 283 281 281 282 279 275 271 269 265 262 268 265 260 261 264 262 264 265 266 267 267 264 259 247 239 232 234 237 240 240 239 245 248 251 255 257 257 246 222 217 218 224 227 230 236 237 236 233 223 207 198 189 186 193 199 197 187 187 182 165 163 158 150 146 150 159 149 139 138 138 132 128 110
298 297 300 302 301 301 299 295 294 294 290 288 281 278 277 276 274 274 271 270 269 267 262 264 264 262 259 260 259 262 265 266 264 262 260 257 249 237 230 234 239 243 243 246 250 252 254 255 250 241 230 216 213 214 217 222 226 229 230 227 222 203 197 187 189 192 198 193 190 181 166 154 140 140 158 160 152 144 147 147 143 142 126 136 129
297 297 298 298 295 296 294 294 295 294 294 293 292 289 286 283 281 275 274 275 276 273 273 272 272 271 271 269 268 261 256 251 249 252 261 264 266 240 220 226 228 222 235 239 239 241 244 250 249 240 225 222 223 216 214 212 215 218 217 218 214 197 192 185 183 190 192 188 167 138 128 146 152 154 147 154 155 147 147 145 139 137 139 147 141
295 294 295 293 291 292 291 292 292 294 294 294 288 288 289 289 284 283 278 278 275 276 274 273 271 271 272 272 273 275 277 272 266 282 286 280 272 269 251 238 234 240 242 240 239 233 238 241 228 221 207 205 205 207 207 203 205 209 212 212 204 187 175 174 185 184 171 166 163 152 154 146 150 148 151 146 152 146 132 110 124 128 142 154 151
295 294 294 292 292 293 293 293 293 291 289 288 288 282 274 275 277 278 281 278 277 276 275 274 275 277 277 270 267 268 268 268 273 271 268 269 273 276 281 280 276 265 249 246 239 240 237 224 210 203 198 185 193 201 201 197 199 198 205 204 194 184 181 182 179 176 166 171 160 158 164 162 161 161 154 152 142 139 140 136 135 144 149 160 160
294 294 295 293 293 295 293 292 289 286 284 283 282 283 287 279 273 276 277 280 279 277 276 275 275 274 272 274 270 266 267 268 268 268 269 269 269 271 271 270 268 268 266 264 251 240 240 223 208 201 199 195 194 201 199 198 197 196 194 194 195 186 181 181 179 170 167 164 163 164 166 164 163 157 157 153 149 140 141 145 138 151 160 162 160
294 294 294 292 292 290 288 287 287 283 283 281 281 283 284 287 283 272 276 280 281 281 281 281 281 281 279 276 275 274 269 267 269 269 269 267 266 266 266 265 264 264 260 254 247 240 238 229 205 196 196 201 206 206 200 203 198 188 181 180 189 182 177 179 171 163 163 162 163 167 165 164 159 157 151 147 139 146 147 153 161 161 165 172 166
291 292 291 290 289 289 288 286 283 283 283 282 282 281 281 285 287 290 279 278 282 283 283 283 282 282 279 277 275 273 273 271 268 267 265 264 264 264 264 264 261 256 254 247 234 239 234 230 205 207 204 205 208 202 202 200 192 184 180 181 176 173 173 161 152 159 163 163 157 162 162 156 154 149 147 140 141 147 155 155 160 159 162 163 171
287 290 290 289 288 286 284 281 280 279 278 279 279 280 280 281 283 285 291 292 286 282 281 282 284 285 286 287 287 286 284 280 275 270 266 264 263 263 262 262 261 261 256 245 230 230 232 211 207 210 212 210 207 202 200 195 189 179 176 180 169 157 149 141 149 155 151 156 160 161 158 156 154 150 147 138 141 142 150 159 158 161 170 170 169
286 286 285 285 282 281 279 279 278 278 279 278 278 279 279 280 282 285 286 289 290 290 290 287 283 283 283 283 283 283 282 283 283 282 281 277 269 260 260 258 256 251 248 242 231 224 226 218 204 213 213 209 207 200 196 186 180 177 173 167 156 151 145 153 156 156 152 155 154 158 157 154 156 153 149 144 146 149 157 158 163 163 164 164 165
284 284 285 283 281 278 277 278 278 278 279 278 278 278 280 281 281 281 281 281 283 285 285 280 282 284 286 285 285 285 285 284 282 279 275 270 268 269 265 250 245 243 239 231 224 222 221 219 216 215 209 210 204 197 191 181 180 175 170 163 160 155 154 157 158 156 155 154 156 155 152 149 150 145 142 145 153 155 157 159 161 164 164 165 164
284 283 281 281 279 278 278 276 275 275 277 278 278 277 276 276 276 278 279 279 280 280 281 283 282 280 282 279 280 284 286 289 289 288 283 277 275 265 251 250 243 242 237 231 221 215 219 216 213 215 207 208 200 190 176 175 170 159 156 156 154 158 164 164 162 156 155 151 149 150 150 152 148 149 148 141 141 147 154 156 159 160 162 166 161
277 276 275 276 277 279 278 276 276 277 278 277 277 277 277 278 279 278 279 281 282 284 285 286 288 286 287 287 287 284 286 288 291 292 292 287 274 261 251 246 246 240 243 234 222 210 212 211 204 203 204 199 195 176 166 164 156 151 148 146 152 157 162 162 162 149 144 139 143 145 143 140 109 120 129 126 135 142 148 150 152 154 153 161 157
290 288 288 288 287 285 283 282 282 280 279 280 278 279 278 279 279 280 281 282 284 284 286 286 286 288 287 289 291 290 289 287 284 289 293 292 285 272 250 244 245 243 240 237 219 215 211 210 194 193 193 193 185 171 160 157 150 148 144 143 145 150 154 149 151 147 147 146 145 144 138 127 120 130 133 135 140 147 152 153 157 153 153 159 166
296 295 292 292 290 287 285 282 282 280 278 278 278 277 278 279 279 280 281 283 283 284 284 285 285 283 283 284 286 289 290 290 289 284 283 286 289 294 273 247 250 255 251 239 228 215 209 198 180 182 184 183 164 156 153 146 145 144 146 152 153 156 158 155 154 155 155 152 144 139 134 129 136 135 133 140 144 151 155 157 158 160 159 157 154
296 293 292 292 289 290 287 283 279 277 276 273 275 275 276 278 278 279 280 281 282 285 286 285 285 286 287 287 288 290 295 294 294 291 280 277 279 285 290 276 254 257 264 259 233 209 198 184 147 148 140 139 139 140 140 140 139 145 152 150 147 151 149 149 152 150 148 143 141 135 122 130 136 136 135 140 150 147 151 151 155 158 157 144 142
294 293 291 289 290 289 286 285 282 281 278 277 275 273 274 275 277 278 280 282 284 284 285 285 283 284 285 287 287 289 289 287 290 290 287 275 272 282 289 296 301 310 302 273 233 195 159 132 131 125 123 123 126 132 132 139 146 148 150 149 152 149 149 154 155 151 146 143 136 115 108 124 128 127 135 141 139 144 149 156 164 158 151 153 147
299 296 294 294 295 294 293 292 292 291 287 282 276 274 274 276 277 279 278 278 280 281 283 285 285 286 286 289 291 294 291 286 286 286 282 272 266 270 279 295 319 315 306 278 232 153 132 128 127 129 135 144 149 152 157 157 153 148 151 153 151 152 150 149 146 145 142 136 132 121 132 140 138 135 141 140 145 145 157 158 157 150 148 144 144
302 300 298 299 299 298 297 296 297 294 291 287 281 278 278 277 275 274 275 277 276 278 280 282 285 287 287 290 291 290 283 283 282 288 291 284 267 262 275 310 319 327 323 309 134 129 121 122 123 124 131 142 146 148 149 156 156 156 152 150 150 151 151 151 153 152 148 142 123 127 134 132 134 137 140 143 146 146 152 145 146 147 148 151 165
306 305 305 304 304 303 303 304 304 302 300 293 283 277 277 278 276 276 277 276 278 278 277 278 281 282 285 285 286 287 285 284 288 293 297 289 274 294 332 353 352 353 348 343 8 86 115 121 125 129 130 127 126 126 126 134 145 151 154 150 152 156 160 159 157 149 143 138 134 133 131 134 137 137 136 138 141 144 146 149 153 156 156 160 163
311 310 308 307 308 308 310 310 312 312 311 310 295 285 287 285 281 281 279 279 280 279 279 279 279 280 281 283 286 290 299 312 316 321 327 340 351 357 1 1 16 23 28 19 24 45 77 99 114 122 125 121 122 116 114 116 115 117 125 136 139 143 140 139 136 131 135 135 134 132 131 129 130 136 140 141 142 142 142 149 155 158 165 170 181
316 314 315 314 315 313 314 316 316 317 319 319 319 309 295 290 289 286 284 285 287 287 288 289 295 300 307 317 330 336 334 336 342 345 347 355 1 4 8 10 14 27 34 34 38 50 62 70 79 91 99 104 105 107 108 109 107 108 108 114 115 117 125 129 129 129 125 127 128 126 128 130 133 135 140 138 140 143 146 153 151 162 166 178 187
319 320 318 319 318 319 320 321 321 323 324 324 325 326 328 328 324 323 328 327 325 328 330 333 335 336 335 335 336 334 341 343 347 350 356 2 9 10 11 20 25 28 39 48 48 51 56 68 77 86 92 96 100 99 98 99 99 102 105 114 121 126 126 124 118 112 111 115 119 123 125 126 127 131 132 136 137 148 146 162 161 167 180 181 192
327 325 324 325 325 325 325 324 325 327 327 328 329 330 333 333 334 337 336 335 333 337 338 339 339 342 344 345 342 345 349 355 356 357 3 11 16 23 31 35 41 48 48 44 46 55 62 67 72 79 86 88 92 98 101 97 91 92 98 104 107 107 107 104 103 103 93 99 102 104 107 110 117 121 129 134 143 146 152 166 160 172 180 186 180
330 328 327 328 329 328 325 325 324 325 328 330 332 334 335 338 341 344 343 343 341 342 344 345 345 349 350 351 354 356 360 359 0 0 4 11 19 24 30 34 38 50 53 52 57 63 69 73 78 80 83 85 90 91 85 59 85 96 98 109 112 105 101 100 99 98 98 103 104 107 110 114 114 119 124 135 147 153 158 167 166 173 180 184 189
334 334 331 331 330 329 330 331 331 333 334 334 337 339 339 342 343 344 348 347 349 347 348 347 349 350 358 1 7 7 8 8 10 13 17 26 28 38 42 48 55 59 63 65 68 68 72 71 80 82 85 81 77 59 50 56 76 94 101 101 101 103 106 106 105 104 106 107 108 107 114 118 125 127 146 149 155 154 173 171 175 180 190 185 190